This is the latest recevied weather packets stored in our database for station/object WV5G-13. If no packets are shown the sender has not sent any weather packets the latest 1 day(s).
| Time | Temp. | Humidity | Pressure | Rain* | Wind** | Luminosity | Snow |
|---|---|---|---|---|---|---|---|
| 1778066444 | 5.56° C | 75% | 1012.6 hPa | 0 mm | - | 0 W/m² | - |
| 1778066142 | 5.56° C | 76% | 1012.5 hPa | 0 mm | - | 0 W/m² | - |
| 1778065839 | 5.56° C | 78% | 1012.5 hPa | 0 mm | - | 0 W/m² | - |
| 1778064627 | 5.56° C | 84% | 1012.9 hPa | 0 mm | - | 0 W/m² | - |
| 1778064325 | 5° C | 84% | 1012.6 hPa | 0 mm | - | 0 W/m² | - |
| 1778063416 | 5° C | 86% | 1012.8 hPa | 0 mm | - | 0 W/m² | - |
| 1778063115 | 5° C | 85% | 1012.5 hPa | 0 mm | - | 0 W/m² | - |
| 1778062508 | 5.56° C | 85% | 1012.7 hPa | 0 mm | - | 0 W/m² | - |
| 1778062205 | 5.56° C | 85% | 1012.6 hPa | 0 mm | - | 0 W/m² | - |
| 1778060995 | 6.11° C | 82% | 1011.9 hPa | 0 mm | - | 0 W/m² | - |
| 1778060694 | 6.67° C | 82% | 1011.8 hPa | 0 mm | - | 0 W/m² | - |
| 1778060391 | 6.67° C | 82% | 1011.3 hPa | 0 mm | - | 0 W/m² | - |
| 1778060089 | 6.67° C | 81% | 1011.6 hPa | 0 mm | - | 0 W/m² | - |
| 1778058879 | 6.67° C | 82% | 1011.1 hPa | 0 mm | - | 0 W/m² | - |
| 1778058576 | 6.67° C | 82% | 1011.3 hPa | 0 mm | - | 0 W/m² | - |
| 1778057970 | 6.67° C | 80% | 1011.3 hPa | 0 mm | - | 0 W/m² | - |
| 1778057667 | 6.67° C | 80% | 1011.3 hPa | 0 mm | - | 0 W/m² | - |
| 1778057363 | 6.67° C | 79% | 1011.2 hPa | 0 mm | - | 0 W/m² | - |
| 1778056756 | 7.22° C | 79% | 1011 hPa | 0 mm | - | 0 W/m² | - |
| 1778056454 | 7.22° C | 79% | 1011.1 hPa | 0 mm | - | 0 W/m² | - |
| 1778056151 | 7.22° C | 79% | 1011.3 hPa | 0 mm | - | 0 W/m² | - |
| 1778055848 | 7.22° C | 79% | 1011.1 hPa | 0 mm | - | 0 W/m² | - |
| 1778054939 | 7.22° C | 78% | 1011 hPa | 0 mm | - | 0 W/m² | - |
| 1778053424 | 6.67° C | 79% | 1010.2 hPa | 0 mm | - | 0 W/m² | - |
| 1778053122 | 6.67° C | 79% | 1010.2 hPa | 0 mm | - | 0 W/m² | - |
* Rain latest hour (hover to see other rain measurements)
** Current wind speed in m/s (hover to see current wind gust speed)